KTIWKPWT

Guest
Details From KTIW - TACOMA NARROWS
To KPWT - Bremerton National
Flight Number -
Tags generated
Created
Modified
Stats Distance 15 nm / 28 km
Max Altitude 0 ft / 0 m
Waypoints 2
Social Downloads 0
Likes 0
Share VATSIM

Download

Looking for another format? Having issues loading an existing format? Contact us
Advertisement - Login to hide

Notes

Basic altitude profile: - Ascent Rate: 2500ft/min - Ascent Speed: 250kts - Cruise Altitude: 35000ft - Cruise Speed: 420kts - Descent Rate: 1500ft/min - Descent Speed: 250kts Options: - Use NATs: yes - Use PACOTS: yes - Use low airways: yes - Use high airways: yes

Route

KTIW KPWT

ID Type Via Altitude Latitude Longitude Leg Dist Tot Dist Heading (true) Name
O KTIW APT - 0 ft / 0 m 47.26793˚ -122.57811˚ - 0 nm - TACOMA NARROWS
O KPWT APT - 0 ft / 0 m 47.49024˚ -122.76481˚ 15 nm 15 nm 330° / 330° Bremerton National

Altitude Profile

Advertisement - Login to hide

KTIW

Details ICAO KTIW (TIW)
Name TACOMA NARROWS
Region United States
Timezone America/Los_Angeles (UTC-7.0)
Stats Elevation 292 ft / 89 m (AMSL)
Location 47.267930° -122.578113°
Runways 1
Magnetic Variation 15.605° E

METAR

KTIW 220753Z AUTO 02006KT 10SM CLR 17/08 A3020 RMK AO2 SLP226 T01670083 402330106

Decode

TAF

Not found

Departure Runways

ID Width Length Bearing (true) Bearing (mag) Surface Threshold Offset Overrun Length
17 150 ft / 46 m 5,004 ft / 1,525 m 186.99° 171.39° Asphalt 0 ft / 0 m 0 ft / 0 m
35 150 ft / 46 m 5,004 ft / 1,525 m 6.99° 351.39° Asphalt 0 ft / 0 m 0 ft / 0 m

KPWT

Details ICAO KPWT (PWT)
Name Bremerton National
Region United States
Timezone America/Los_Angeles (UTC-7.0)
Stats Elevation 444 ft / 135 m (AMSL)
Location 47.490240° -122.764815°
Runways 1
Magnetic Variation 15.690° E

METAR

KPWT 220756Z AUTO 00000KT 10SM CLR 11/07 A3020 RMK AO2 SLP242 T01110072 402560056

Decode

TAF

TAF KPWT 220520Z 2206/2306 VRB03KT P6SM SKC FM222200 03006KT P6SM SKC FM230400 VRB03KT P6SM SKC

Decode

Destination Runways

ID Width Length Bearing (true) Bearing (mag) Surface Threshold Offset Overrun Length
01 151 ft / 46 m 5,997 ft / 1,828 m 32.69° 17.00° Asphalt 0 ft / 0 m 0 ft / 0 m
19 151 ft / 46 m 5,997 ft / 1,828 m 212.70° 197.01° Asphalt 0 ft / 0 m 1,243 ft / 379 m

Approach Navaids

Runway Type Ident Frequency Range Bearing (true) Bearing (mag) Slope Elevation
19 Localiser IPWT 111.10 MHz 18 nm / 33 km 212.69° 197.00° - 444 ft / 135 m (AMSL)
19 Glidescope IPWT 111.10 MHz 10 nm / 19 km 212.69° 197.00° 3.00° 436 ft / 133 m (AMSL)

Popular Alternatives